Tracking 33203 objects as of 15-Feb-2026
HD Live streaming from Space Station
objects crossing your sky now

SL-8 DEB

Track SL-8 DEB now!
10-day predictions


NORAD ID: 20435
Int'l Code: 1990-004D
Perigee: 676.9 km
Apogee: 695.1 km
Inclination: 74.0 °
Period: 98.3 minutes
Semi major axis: 7056 km
RCS: 0.0066 m2 (small)
Launch date: January 18, 1990
Source: Commonwealth of Independent States (former USSR) (CIS)
Launch site: PLESETSK MISSILE AND SPACE COMPLEX (PKMTR)

Note: This is SATELLITE DEBRIS
Your satellite tracking list
Your tracking list is empty




NASA's NSSDC Master Catalog

Two Line Element Set (TLE):
1 20435U 90004D   26046.47888715  .00003579  00000-0  68089-3 0  9991
2 20435  74.0240 182.2790 0012885 217.2226 209.5252 14.64449654904609
Source of the keplerian elements: AFSPC